Temp
-23 -25 -26 -26 -26 -27 -29 -30 -31 -32 -32 -32 -33 -33 -35 -35 -35 -35 -35 -35 -35 -35 -35 -36 -36 -36 -35 -35 -36 -35 -35 -35 -35 -35 -35 -35 -35 -34 -34 -33 -32 -31 -31 -31 -30 -29 -29 -28 -28 -28 -27 -26 -25 -24
-26 -26 -26 -27 -28 -30 -31 -32 -33 -33 -33 -33 -33 -34 -35 -35 -35 -35 -35 -35 -35 -36 -36 -35 -36 -36 -35 -36 -36 -35 -35 -35 -36 -36 -35 -35 -35 -35 -34 -34 -34 -33 -33 -32 -31 -30 -29 -29 -28 -28 -27 -27 -26 -25
-26 -27 -28 -29 -31 -32 -32 -33 -33 -33 -33 -34 -34 -35 -36 -36 -36 -36 -36 -36 -36 -36 -36 -36 -36 -36 -36 -36 -36 -35 -36 -36 -36 -36 -36 -36 -36 -36 -35 -35 -34 -34 -34 -33 -32 -31 -31 -30 -29 -28 -28 -28 -28 -27
-27 -28 -29 -31 -32 -32 -32 -33 -34 -34 -34 -34 -34 -35 -36 -36 -36 -36 -36 -36 -36 -36 -36 -36 -36 -36 -36 -36 -36 -36 -36 -37 -37 -36 -36 -36 -36 -36 -36 -36 -35 -34 -34 -34 -33 -32 -31 -31 -30 -29 -29 -28 -28 -27
-28 -29 -31 -32 -32 -32 -33 -33 -34 -34 -34 -34 -34 -35 -36 -36 -36 -36 -36 -36 -36 -36 -36 -36 -36 -36 -36 -36 -36 -37 -37 -37 -37 -37 -37 -36 -36 -36 -36 -36 -36 -35 -34 -34 -33 -33 -33 -32 -31 -30 -29 -29 -28 -28
-29 -30 -32 -32 -32 -33 -33 -33 -34 -34 -34 -34 -34 -35 -35 -36 -36 -36 -37 -37 -37 -37 -37 -37 -37 -37 -37 -37 -37 -37 -37 -37 -37 -36 -36 -37 -36 -36 -36 -36 -36 -35 -35 -35 -34 -33 -33 -32 -32 -31 -31 -30 -30 -29
-29 -31 -32 -32 -33 -33 -33 -33 -34 -34 -34 -34 -34 -35 -35 -36 -37 -37 -37 -37 -37 -37 -38 -38 -38 -38 -38 -38 -37 -37 -37 -37 -37 -36 -37 -36 -36 -36 -36 -36 -36 -36 -36 -35 -35 -33 -33 -33 -32 -32 -31 -31 -30 -30
-29 -31 -32 -32 -32 -33 -33 -33 -34 -34 -34 -34 -34 -35 -35 -36 -37 -37 -37 -38 -38 -38 -38 -38 -38 -38 -38 -38 -38 -37 -37 -37 -37 -37 -37 -36 -36 -36 -36 -36 -36 -36 -36 -35 -35 -34 -34 -33 -33 -32 -32 -32 -31 -30
-29 -30 -31 -32 -32 -33 -33 -33 -33 -34 -34 -34 -34 -35 -35 -36 -36 -37 -38 -38 -38 -38 -38 -38 -38 -38 -38 -38 -38 -38 -37 -37 -37 -37 -37 -36 -36 -36 -36 -36 -36 -35 -35 -36 -35 -35 -34 -33 -33 -33 -32 -32 -31 -30
-30 -30 -30 -31 -32 -32 -33 -33 -33 -34 -34 -34 -35 -35 -35 -36 -36 -37 -37 -37 -38 -38 -38 -38 -38 -38 -38 -38 -38 -38 -37 -37 -37 -37 -36 -36 -36 -36 -36 -36 -36 -35 -35 -35 -35 -35 -35 -35 -33 -32 -32 -31 -31 -30
-30 -31 -31 -31 -31 -31 -32 -33 -33 -33 -34 -34 -35 -35 -35 -36 -36 -36 -37 -37 -37 -37 -38 -38 -38 -38 -38 -38 -38 -38 -38 -37 -37 -37 -36 -36 -36 -36 -36 -36 -36 -35 -35 -35 -35 -35 -35 -35 -34 -34 -32 -32 -31 -30
-30 -31 -31 -32 -32 -32 -31 -32 -33 -33 -34 -34 -34 -35 -35 -36 -36 -36 -36 -37 -37 -37 -37 -37 -38 -38 -38 -38 -38 -38 -38 -37 -37 -37 -36 -36 -36 -36 -35 -35 -35 -35 -35 -35 -35 -35 -35 -35 -35 -34 -33 -32 -32 -31
-31 -31 -31 -32 -32 -32 -32 -32 -32 -33 -33 -34 -34 -35 -35 -35 -36 -36 -36 -36 -36 -37 -37 -37 -37 -37 -38 -38 -38 -38 -37 -37 -37 -37 -36 -36 -36 -36 -36 -36 -36 -36 -35 -35 -35 -35 -35 -35 -35 -34 -34 -33 -33 -32
-31 -31 -31 -32 -32 -32 -33 -33 -33 -33 -33 -33 -33 -34 -35 -35 -36 -36 -36 -36 -36 -36 -36 -37 -37 -37 -37 -37 -37 -37 -37 -37 -37 -37 -37 -37 -36 -36 -36 -36 -36 -36 -36 -36 -36 -36 -36 -35 -35 -35 -35 -34 -34 -33
-31 -31 -32 -32 -32 -32 -32 -33 -33 -33 -33 -33 -33 -33 -33 -34 -34 -35 -35 -36 -36 -36 -36 -36 -36 -37 -37 -37 -37 -37 -37 -37 -37 -37 -37 -37 -37 -36 -36 -36 -36 -36 -36 -36 -36 -36 -36 -36 -36 -35 -35 -35 -34 -34
-31 -32 -32 -32 -32 -32 -33 -33 -33 -33 -33 -34 -34 -34 -34 -34 -34 -34 -34 -34 -35 -35 -36 -36 -36 -36 -37 -37 -37 -37 -37 -37 -37 -37 -37 -37 -37 -37 -37 -37 -36 -36 -36 -36 -36 -36 -36 -36 -36 -35 -35 -35 -35 -35
-31 -32 -32 -32 -32 -33 -33 -33 -33 -33 -33 -34 -34 -34 -34 -34 -34 -34 -34 -34 -34 -34 -35 -35 -35 -36 -36 -36 -37 -37 -37 -37 -37 -37 -37 -37 -37 -37 -37 -37 -37 -37 -37 -36 -36 -36 -36 -36 -36 -35 -35 -35 -35 -35
-32 -32 -32 -32 -32 -32 -33 -33 -33 -33 -33 -34 -34 -34 -34 -34 -35 -35 -35 -35 -35 -35 -35 -35 -35 -35 -36 -36 -36 -37 -37 -37 -37 -37 -37 -37 -37 -37 -37 -37 -37 -37 -37 -37 -37 -36 -36 -36 -36 -35 -35 -35 -35 -35
-32 -32 -32 -32 -32 -33 -33 -33 -33 -34 -34 -34 -34 -34 -35 -35 -35 -35 -35 -35 -35 -35 -35 -35 -35 -35 -35 -35 -35 -36 -36 -36 -36 -37 -37 -37 -37 -37 -37 -37 -37 -37 -37 -37 -37 -37 -37 -36 -36 -36 -36 -36 -35 -35
-32 -32 -33 -33 -33 -33 -33 -33 -34 -34 -34 -34 -35 -35 -35 -35 -35 -35 -35 -36 -36 -36 -36 -36 -36 -36 -36 -36 -36 -36 -36 -36 -36 -36 -36 -36 -36 -37 -37 -37 -37 -37 -37 -37 -37 -37 -37 -37 -37 -37 -36 -36 -36 -36
-32 -33 -33 -33 -33 -33 -34 -34 -34 -34 -35 -35 -35 -35 -36 -36 -36 -36 -36 -36 -36 -36 -37 -37 -37 -37 -37 -37 -37 -37 -37 -37 -37 -36 -36 -37 -37 -37 -37 -37 -37 -37 -37 -37 -37 -37 -37 -37 -37 -37 -37 -37 -36 -36
-33 -33 -33 -34 -34 -34 -35 -35 -35 -35 -36 -36 -36 -36 -36 -36 -37 -37 -37 -37 -38 -38 -38 -38 -38 -38 -38 -38 -38 -38 -38 -38 -38 -37 -37 -37 -37 -37 -37 -37 -37 -37 -37 -37 -37 -37 -37 -37 -37 -37 -37 -37 -37 -36
-33 -33 -34 -34 -35 -35 -35 -36 -36 -36 -36 -36 -37 -37 -37 -37 -38 -38 -39 -39 -39 -39 -39 -39 -39 -39 -39 -39 -39 -39 -39 -39 -39 -39 -38 -38 -38 -38 -37 -37 -37 -37 -37 -37 -37 -37 -37 -37 -37 -37 -37 -37 -36 -36
-34 -35 -35 -36 -36 -36 -36 -36 -37 -37 -37 -37 -37 -38 -38 -39 -39 -39 -40 -40 -40 -40 -40 -40 -40 -40 -40 -40 -40 -40 -39 -39 -39 -39 -39 -39 -39 -39 -38 -38 -38 -38 -38 -37 -37 -37 -37 -37 -37 -37 -37 -37 -37 -36
-35 -36 -36 -37 -37 -37 -37 -37 -37 -38 -38 -38 -39 -39 -39 -39 -40 -40 -40 -41 -41 -41 -41 -41 -41 -41 -41 -40 -40 -40 -40 -40 -40 -40 -40 -39 -39 -39 -39 -39 -39 -39 -39 -39 -38 -38 -38 -38 -38 -37 -37 -37 -37 -37
-36 -37 -37 -38 -38 -38 -38 -38 -38 -38 -39 -39 -39 -39 -39 -39 -40 -40 -40 -41 -41 -41 -41 -41 -41 -41 -41 -41 -41 -40 -40 -40 -40 -40 -40 -40 -40 -40 -40 -40 -40 -40 -40 -40 -40 -39 -39 -39 -39 -38 -38 -38 -38 -37
-35 -36 -37 -38 -38 -38 -38 -38 -38 -39 -39 -39 -39 -39 -39 -39 -39 -40 -40 -40 -40 -40 -41 -41 -41 -41 -40 -40 -40 -40 -40 -40 -40 -40 -40 -40 -40 -40 -40 -40 -40 -40 -40 -40 -40 -40 -40 -39 -39 -39 -39 -39 -38 -38
-34 -35 -35 -36 -37 -37 -37 -38 -38 -38 -39 -39 -39 -39 -39 -39 -39 -40 -40 -40 -40 -40 -40 -40 -40 -40 -40 -40 -40 -40 -40 -40 -40 -41 -41 -41 -41 -41 -41 -41 -41 -41 -41 -41 -41 -41 -40 -40 -40 -39 -39 -39 -39 -39
-35 -35 -35 -36 -36 -36 -37 -37 -38 -38 -38 -39 -39 -39 -39 -39 -40 -40 -40 -40 -40 -40 -40 -40 -40 -40 -40 -40 -40 -40 -40 -40 -40 -41 -41 -41 -41 -41 -41 -42 -42 -42 -42 -42 -42 -42 -42 -42 -41 -41 -40 -40 -40 -39
-35 -35 -36 -36 -36 -37 -37 -38 -38 -38 -39 -39 -39 -39 -40 -39 -40 -40 -40 -40 -40 -40 -40 -40 -40 -40 -40 -40 -40 -40 -40 -41 -41 -41 -41 -41 -41 -41 -41 -41 -42 -42 -42 -42 -42 -42 -42 -42 -42 -42 -42 -41 -41 -41
-35 -35 -36 -36 -37 -37 -38 -38 -38 -39 -39 -39 -39 -39 -39 -39 -40 -40 -40 -40 -40 -40 -40 -40 -40 -40 -40 -40 -41 -41 -41 -41 -41 -41 -41 -42 -42 -41 -41 -41 -41 -42 -42 -42 -42 -42 -42 -42 -42 -42 -42 -42 -42 -42
-35 -35 -36 -36 -36 -37 -37 -38 -38 -38 -39 -39 -39 -39 -39 -40 -40 -40 -40 -40 -40 -40 -41 -41 -41 -41 -41 -41 -41 -41 -42 -42 -42 -42 -42 -42 -42 -42 -42 -41 -41 -42 -42 -42 -42 -42 -42 -43 -43 -43 -42 -42 -42 -42
-35 -36 -36 -36 -36 -36 -37 -37 -38 -38 -38 -38 -39 -39 -39 -40 -40 -40 -40 -40 -40 -40 -41 -41 -41 -41 -42 -42 -42 -42 -42 -42 -42 -42 -42 -42 -42 -41 -41 -41 -41 -41 -42 -42 -42 -42 -42 -42 -42 -42 -43 -42 -42 -42
Height
5549 5537 5525 5513 5501 5489 5479 5470 5464 5457 5451 5444 5438 5432 5427 5422 5421 5420 5417 5417 5416 5414 5413 5412 5411 5410 5408 5405 5401 5399 5398 5396 5397 5399 5400 5401 5401 5403 5405 5406 5411 5415 5419 5426 5434 5439 5442 5443 5450 5455 5454 5462 5468 5473
5536 5524 5510 5497 5486 5477 5469 5463 5456 5450 5443 5437 5431 5424 5418 5415 5414 5413 5413 5411 5411 5410 5409 5407 5406 5404 5402 5399 5397 5393 5392 5391 5392 5393 5394 5395 5395 5396 5398 5400 5399 5404 5406 5412 5417 5421 5426 5431 5434 5438 5441 5447 5453 5459
5523 5510 5498 5487 5478 5470 5463 5455 5449 5443 5437 5431 5424 5419 5413 5410 5409 5408 5407 5406 5406 5405 5403 5401 5399 5397 5395 5392 5389 5387 5386 5385 5385 5386 5387 5389 5389 5390 5390 5391 5393 5393 5395 5398 5404 5407 5411 5418 5422 5424 5428 5434 5438 5444
5513 5501 5489 5480 5472 5464 5457 5450 5443 5436 5430 5425 5419 5415 5411 5407 5405 5404 5403 5401 5400 5398 5397 5394 5392 5390 5387 5385 5382 5381 5380 5380 5380 5381 5382 5384 5385 5385 5384 5384 5385 5386 5389 5390 5391 5395 5400 5402 5407 5413 5416 5421 5426 5431
5506 5494 5483 5475 5468 5460 5452 5444 5437 5430 5424 5419 5414 5409 5405 5403 5401 5399 5397 5395 5393 5393 5390 5387 5384 5382 5380 5378 5377 5377 5376 5376 5377 5378 5379 5379 5379 5380 5380 5380 5380 5381 5380 5383 5385 5388 5390 5392 5397 5401 5405 5410 5414 5420
5500 5489 5480 5472 5465 5457 5449 5440 5432 5425 5420 5415 5409 5404 5399 5396 5394 5391 5390 5388 5386 5384 5382 5380 5377 5375 5374 5373 5373 5373 5374 5375 5375 5375 5376 5375 5376 5377 5376 5375 5376 5375 5375 5374 5378 5381 5383 5386 5390 5394 5395 5398 5402 5408
5497 5486 5478 5470 5463 5455 5446 5437 5428 5421 5416 5411 5405 5400 5394 5390 5387 5386 5384 5382 5379 5377 5375 5374 5372 5371 5369 5369 5369 5370 5371 5372 5373 5373 5373 5373 5373 5372 5372 5372 5372 5370 5370 5370 5371 5374 5377 5379 5382 5384 5386 5390 5393 5395
5496 5485 5477 5469 5461 5453 5444 5435 5426 5418 5413 5408 5403 5398 5393 5388 5384 5381 5379 5377 5376 5375 5374 5373 5371 5370 5368 5367 5366 5367 5368 5369 5369 5369 5369 5369 5369 5369 5369 5369 5368 5368 5368 5368 5368 5369 5371 5373 5376 5378 5381 5384 5386 5387
5497 5486 5476 5468 5459 5451 5443 5434 5425 5417 5412 5406 5401 5396 5392 5388 5383 5380 5378 5377 5375 5376 5373 5372 5370 5369 5367 5365 5364 5364 5365 5365 5366 5365 5365 5366 5365 5365 5364 5364 5364 5364 5365 5365 5365 5365 5366 5368 5371 5374 5377 5379 5380 5383
5498 5489 5478 5468 5459 5450 5442 5434 5426 5418 5412 5406 5401 5396 5391 5388 5384 5381 5379 5376 5374 5373 5371 5369 5368 5366 5366 5363 5363 5363 5363 5363 5363 5363 5362 5361 5360 5359 5359 5359 5360 5360 5360 5360 5361 5362 5362 5363 5365 5368 5371 5374 5376 5378
5500 5490 5481 5472 5461 5452 5444 5435 5428 5419 5412 5407 5401 5396 5392 5388 5385 5381 5378 5376 5373 5371 5369 5367 5365 5364 5364 5362 5361 5361 5361 5361 5360 5360 5360 5358 5356 5354 5354 5355 5356 5356 5355 5356 5357 5357 5358 5359 5360 5363 5366 5369 5370 5373
5500 5492 5483 5474 5465 5456 5448 5438 5430 5422 5414 5409 5404 5398 5394 5390 5386 5383 5379 5376 5373 5370 5368 5366 5364 5362 5362 5361 5360 5360 5359 5359 5358 5358 5357 5355 5354 5352 5352 5353 5353 5352 5352 5352 5352 5353 5354 5355 5356 5358 5360 5362 5365 5368
5501 5493 5485 5476 5468 5459 5451 5443 5434 5425 5419 5412 5406 5401 5397 5392 5387 5383 5380 5376 5373 5370 5367 5364 5362 5361 5359 5358 5358 5357 5356 5356 5356 5355 5354 5354 5353 5351 5351 5350 5349 5349 5349 5349 5349 5349 5350 5351 5352 5353 5355 5357 5359 5363
5502 5493 5485 5477 5469 5461 5453 5446 5438 5431 5425 5417 5410 5404 5398 5393 5388 5384 5380 5376 5373 5370 5367 5364 5361 5359 5357 5356 5355 5354 5354 5353 5352 5352 5352 5351 5351 5350 5349 5348 5348 5347 5346 5346 5346 5346 5347 5348 5349 5349 5351 5352 5354 5357
5500 5492 5485 5477 5469 5462 5454 5447 5441 5434 5428 5421 5415 5409 5402 5397 5391 5386 5381 5377 5373 5369 5366 5363 5361 5359 5357 5355 5353 5352 5351 5349 5349 5348 5348 5348 5347 5347 5346 5346 5345 5345 5344 5344 5344 5344 5344 5344 5345 5345 5346 5347 5348 5350
5497 5490 5482 5475 5468 5460 5453 5447 5440 5434 5427 5422 5416 5410 5405 5399 5394 5388 5383 5378 5373 5369 5366 5363 5360 5358 5356 5354 5352 5350 5349 5347 5347 5346 5345 5344 5344 5344 5343 5342 5342 5341 5341 5341 5340 5340 5340 5340 5340 5341 5342 5342 5343 5344
5494 5487 5479 5472 5465 5457 5450 5444 5438 5431 5425 5420 5414 5409 5404 5399 5394 5389 5385 5380 5376 5372 5367 5363 5360 5358 5355 5353 5351 5349 5348 5347 5345 5344 5343 5342 5341 5340 5340 5339 5338 5338 5337 5337 5336 5336 5336 5336 5336 5336 5337 5337 5338 5340
5489 5482 5475 5467 5460 5453 5446 5439 5433 5427 5421 5416 5411 5405 5400 5396 5392 5387 5383 5379 5376 5372 5368 5365 5361 5358 5355 5352 5350 5348 5346 5345 5343 5342 5341 5339 5338 5337 5336 5336 5335 5334 5333 5332 5331 5331 5331 5330 5330 5331 5332 5332 5333 5334
5484 5476 5468 5460 5453 5446 5439 5433 5427 5421 5415 5410 5405 5400 5396 5391 5387 5383 5379 5376 5372 5369 5366 5363 5360 5357 5355 5352 5350 5347 5345 5343 5342 5340 5339 5337 5336 5335 5333 5332 5331 5330 5329 5328 5327 5327 5326 5326 5325 5325 5325 5326 5327 5327
5476 5468 5461 5452 5445 5438 5431 5425 5419 5413 5408 5403 5398 5393 5389 5385 5381 5377 5373 5370 5367 5364 5361 5358 5356 5353 5351 5349 5347 5345 5343 5341 5340 5338 5337 5335 5334 5332 5331 5330 5328 5327 5326 5325 5324 5323 5322 5321 5321 5320 5320 5320 5320 5321
5467 5459 5452 5444 5436 5429 5422 5416 5410 5405 5400 5395 5390 5386 5381 5377 5373 5369 5366 5362 5359 5356 5353 5351 5348 5346 5344 5343 5342 5340 5338 5337 5335 5334 5333 5332 5330 5329 5327 5326 5325 5324 5323 5322 5321 5320 5319 5317 5316 5316 5315 5315 5315 5315
5458 5449 5442 5433 5426 5419 5413 5407 5402 5397 5392 5387 5383 5377 5372 5368 5363 5359 5355 5352 5349 5346 5344 5342 5340 5339 5337 5336 5335 5333 5332 5331 5329 5328 5327 5325 5324 5323 5322 5321 5319 5318 5317 5317 5316 5315 5314 5313 5312 5311 5311 5310 5309 5309
5447 5439 5430 5423 5416 5410 5405 5399 5394 5389 5384 5379 5374 5369 5363 5358 5353 5349 5346 5343 5340 5338 5336 5335 5333 5332 5330 5329 5328 5326 5325 5323 5322 5320 5319 5318 5316 5315 5313 5312 5311 5310 5310 5309 5308 5307 5307 5306 5306 5305 5305 5305 5304 5304
5434 5426 5418 5411 5405 5400 5395 5390 5385 5380 5375 5370 5365 5359 5354 5348 5344 5340 5337 5335 5333 5332 5330 5328 5327 5325 5324 5323 5321 5319 5317 5316 5314 5312 5310 5309 5307 5305 5303 5302 5301 5299 5298 5297 5297 5296 5296 5296 5296 5296 5296 5296 5296 5297
5423 5415 5408 5402 5396 5391 5387 5382 5376 5372 5366 5361 5357 5352 5347 5343 5338 5334 5332 5330 5328 5326 5324 5322 5321 5319 5317 5315 5313 5311 5309 5306 5304 5302 5300 5298 5296 5294 5292 5290 5288 5286 5285 5284 5284 5283 5284 5284 5284 5285 5286 5286 5287 5287
5411 5403 5397 5391 5386 5382 5377 5373 5369 5364 5360 5357 5353 5350 5346 5341 5337 5333 5330 5327 5325 5323 5320 5317 5315 5312 5310 5308 5305 5303 5300 5298 5296 5294 5291 5289 5287 5284 5282 5280 5277 5276 5274 5272 5271 5270 5270 5270 5271 5272 5273 5274 5275 5276
5404 5395 5388 5383 5379 5376 5372 5368 5365 5362 5359 5356 5353 5349 5345 5342 5338 5334 5330 5327 5323 5320 5317 5314 5311 5307 5304 5302 5300 5297 5294 5291 5288 5286 5283 5280 5277 5274 5272 5269 5267 5265 5263 5261 5260 5259 5258 5258 5258 5259 5260 5261 5262 5263
5405 5397 5391 5386 5381 5376 5372 5369 5366 5363 5360 5356 5353 5348 5344 5341 5337 5333 5328 5324 5320 5316 5312 5309 5306 5302 5299 5296 5293 5290 5288 5285 5282 5279 5275 5272 5269 5266 5263 5261 5258 5255 5253 5251 5249 5247 5247 5246 5245 5246 5247 5248 5249 5251
5409 5403 5397 5391 5386 5381 5376 5372 5368 5364 5360 5356 5352 5347 5343 5338 5334 5329 5324 5320 5315 5311 5307 5303 5299 5297 5294 5290 5287 5285 5282 5280 5278 5275 5273 5270 5267 5264 5261 5257 5254 5251 5249 5246 5243 5241 5239 5238 5237 5236 5236 5236 5237 5238
5412 5405 5400 5394 5389 5384 5379 5373 5368 5363 5359 5355 5350 5345 5341 5336 5332 5327 5322 5318 5313 5309 5305 5301 5298 5294 5292 5289 5287 5284 5282 5279 5276 5274 5270 5267 5264 5261 5258 5255 5252 5248 5245 5242 5239 5236 5234 5232 5231 5230 5229 5228 5228 5229
5414 5408 5402 5396 5390 5384 5378 5372 5367 5362 5357 5353 5348 5344 5340 5337 5332 5327 5323 5318 5314 5310 5306 5302 5298 5296 5293 5290 5288 5285 5282 5279 5276 5273 5269 5266 5263 5259 5256 5253 5249 5246 5243 5239 5236 5233 5231 5229 5227 5225 5223 5222 5222 5222
5415 5409 5403 5397 5391 5384 5377 5371 5365 5360 5356 5352 5348 5345 5341 5338 5334 5330 5326 5321 5317 5313 5309 5305 5302 5298 5295 5291 5288 5285 5283 5280 5277 5274 5270 5267 5263 5260 5257 5254 5251 5247 5243 5239 5236 5233 5230 5227 5225 5223 5221 5219 5218 5217
5416 5411 5406 5399 5392 5385 5377 5371 5366 5361 5357 5354 5350 5346 5343 5340 5337 5334 5330 5325 5321 5317 5313 5310 5306 5302 5299 5296 5293 5290 5288 5285 5281 5278 5274 5270 5267 5263 5260 5257 5253 5249 5245 5242 5238 5235 5231 5229 5226 5224 5222 5220 5218 5218
Wind_Speed
66 61 59 60 60 57 50 43 39 37 36 34 33 32 27 29 23 20 19 18 22 18 15 16 20 24 29 30 28 25 22 15 14 17 15 14 14 14 13 25 45 53 56 54 49 32 41 50 66 61 62 61 61 58
60 61 62 58 53 45 40 37 35 34 32 32 32 29 25 24 15 17 18 18 17 10 20 21 26 29 32 32 34 25 21 18 15 16 17 17 17 20 21 18 19 31 45 45 50 56 53 41 40 49 50 52 59 61
62 60 56 50 43 39 37 36 35 33 31 29 29 23 21 15 16 17 12 13 15 19 25 28 30 32 35 35 33 22 16 11 11 11 15 14 15 13 16 31 28 17 22 39 47 41 47 51 55 49 47 48 48 45
59 56 48 40 38 37 38 37 34 32 29 28 26 18 17 16 18 17 19 17 19 22 25 28 30 34 40 35 24 14 10 12 13 15 14 12 12 12 14 21 32 37 25 16 23 42 51 49 52 51 47 48 49 49
54 48 40 36 36 37 38 36 33 30 27 27 26 23 14 16 16 19 23 25 28 29 32 36 40 37 31 23 15 9 10 10 8 10 12 14 18 18 16 15 16 29 36 37 24 13 17 33 49 60 59 50 46 48
48 42 37 36 36 37 37 36 33 29 26 26 26 25 21 19 23 26 26 26 27 28 30 30 26 23 20 16 11 10 7 8 7 7 5 11 12 11 10 11 9 11 24 37 41 34 19 12 14 21 30 42 58 57
44 40 38 38 37 36 37 38 35 29 25 24 25 24 22 13 16 21 23 23 25 26 19 12 8 7 10 10 12 10 13 12 10 7 8 13 15 15 15 15 16 12 13 16 25 40 42 31 25 17 14 18 31 39
45 41 39 38 37 36 36 39 36 29 24 23 24 21 19 15 13 12 11 9 3 4 5 4 6 6 7 7 8 13 12 15 12 13 15 13 13 15 14 14 15 11 11 7 8 16 28 38 35 31 26 24 14 20
44 43 39 38 37 37 35 37 34 28 23 23 23 20 18 17 14 6 4 5 3 7 9 9 9 10 9 8 6 10 18 18 17 16 16 18 15 15 16 17 14 15 15 14 9 9 10 22 23 25 26 24 21 18
43 42 41 40 39 38 34 34 35 29 25 23 21 20 18 16 14 11 8 8 10 12 12 11 9 7 8 8 4 7 9 10 10 10 9 11 16 18 18 19 18 13 15 14 14 13 13 12 21 23 19 22 20 21
42 41 40 39 40 40 36 33 32 32 29 24 21 19 18 16 14 13 11 10 10 10 10 10 10 8 6 7 5 3 4 4 5 7 8 9 10 10 12 15 16 16 15 17 15 15 16 16 17 19 22 22 19 17
42 40 39 37 37 37 37 37 34 32 29 26 23 20 18 16 14 15 14 12 11 10 9 8 7 6 7 6 6 6 7 8 9 8 8 8 8 7 9 14 16 16 13 14 17 16 16 16 19 22 23 23 19 20
41 40 39 38 37 35 36 35 35 34 30 26 24 22 21 20 18 17 15 14 12 12 11 9 7 7 8 10 10 9 7 7 7 7 8 8 7 5 7 10 11 13 13 13 16 17 16 17 18 22 27 28 27 29
39 39 38 38 37 36 33 33 32 32 31 32 30 25 23 19 17 15 15 14 12 11 10 9 10 9 8 8 9 10 11 11 10 9 8 6 7 8 8 8 8 10 12 12 13 15 16 16 18 21 22 24 29 31
38 37 37 36 35 35 34 33 30 28 27 27 27 28 27 26 23 19 16 14 12 11 10 10 9 9 9 9 7 7 8 8 9 10 11 10 9 10 11 11 10 9 10 11 12 13 14 15 17 17 18 18 20 23
39 38 38 36 35 33 32 32 32 31 29 26 25 24 24 24 25 26 25 22 19 16 13 11 10 10 9 9 8 7 6 6 6 9 9 9 9 10 10 10 10 10 10 10 9 10 11 12 14 16 17 18 18 18
40 40 39 38 37 34 33 32 31 31 30 28 27 25 25 23 22 23 22 22 22 22 20 17 14 12 10 9 8 7 6 6 6 6 7 8 9 10 11 12 13 14 14 15 15 15 15 15 14 14 14 16 18 20
42 42 41 40 38 36 34 33 32 32 31 30 28 27 25 24 24 23 22 22 21 20 19 17 15 13 11 9 8 8 7 7 7 7 7 8 9 9 10 11 11 12 12 13 13 14 15 16 17 17 18 18 18 18
43 45 45 42 39 38 36 34 35 33 32 30 29 27 26 25 25 24 24 23 23 22 21 18 17 14 12 10 8 7 6 6 5 5 5 6 6 7 7 8 9 10 10 11 12 13 13 14 15 16 17 18 19 20
45 49 51 44 41 38 36 34 35 33 32 31 30 28 28 27 27 26 26 26 25 24 22 21 20 18 16 15 13 11 9 8 8 8 8 8 9 9 9 9 9 9 9 10 11 12 12 12 13 14 14 15 17 18
46 50 56 44 41 38 35 35 34 33 31 30 30 29 29 29 29 29 29 28 27 25 24 23 20 19 18 18 17 17 16 15 15 14 14 14 14 14 14 14 14 13 12 12 12 11 11 11 12 14 15 15 15 16
49 55 59 44 40 36 34 34 33 32 30 30 30 31 31 32 32 31 31 29 27 25 23 21 19 19 19 20 20 20 19 19 19 19 19 20 20 20 20 20 20 20 19 19 18 17 16 15 15 14 13 13 15 17
56 58 49 43 36 33 33 32 31 30 30 31 33 34 34 33 31 31 27 25 22 21 21 20 19 19 19 20 20 21 21 22 23 23 23 24 25 26 26 27 27 27 27 26 26 25 24 22 20 19 18 18 17 16
56 50 44 35 32 31 31 30 31 32 33 34 34 32 30 28 26 23 21 19 18 18 18 19 20 21 21 21 22 23 23 24 24 26 27 28 29 30 30 31 31 32 32 32 31 31 30 29 28 26 25 23 22 21
51 43 36 33 31 31 31 32 32 33 32 29 26 24 22 21 20 17 15 15 15 16 17 19 21 22 23 23 23 24 25 26 26 27 28 29 29 30 30 31 31 32 32 33 34 34 33 32 32 31 30 29 28 26
44 41 36 33 31 30 30 28 26 24 22 19 18 18 19 20 19 16 13 12 12 13 14 16 17 19 19 18 19 20 20 21 21 22 23 23 24 25 26 26 26 27 27 28 29 29 30 31 31 31 31 30 30 30
38 35 29 26 24 22 21 20 19 17 15 16 17 19 19 19 18 17 17 17 17 17 17 18 19 20 21 21 21 22 23 24 25 25 26 26 26 27 28 28 29 29 29 29 29 30 29 29 29 30 30 30 30 30
35 33 30 27 24 23 21 19 17 16 16 18 19 20 20 21 21 21 20 19 20 20 19 18 18 19 20 20 20 20 20 20 20 20 21 21 20 19 18 18 18 19 19 20 22 24 26 27 30 30 30 30 31 31
32 32 32 31 29 26 24 22 21 20 20 21 21 22 23 24 24 23 22 22 22 21 20 20 18 17 16 16 15 15 15 15 13 12 11 12 12 13 15 16 16 16 16 15 14 14 16 16 18 21 22 24 27 29
32 32 32 31 30 29 27 26 25 24 22 22 23 23 23 22 22 23 22 22 22 21 19 18 17 16 15 13 12 13 13 14 15 15 16 16 15 15 14 13 13 14 14 14 15 15 15 15 14 14 14 14 15 17
31 32 33 35 35 34 31 29 27 25 24 22 22 20 20 21 22 23 24 24 23 22 20 20 19 18 16 15 15 14 14 14 16 17 18 18 18 17 17 17 18 18 17 16 14 13 12 11 11 11 11 12 12 11
31 33 36 37 37 36 33 30 27 24 22 20 19 20 22 21 22 23 25 25 25 25 24 23 22 21 20 20 19 19 19 18 18 18 19 19 19 18 18 17 18 18 18 17 16 14 12 10 9 9 8 7 6 5
29 31 33 36 39 38 35 31 26 23 22 20 19 21 21 20 20 20 22 23 24 24 24 25 25 25 24 23 22 21 20 20 21 22 22 22 22 21 20 21 21 21 21 20 19 17 15 13 11 11 11 10 8 5
Wind_Direction
319 318 318 317 317 316 317 319 319 319 320 322 322 315 303 292 287 289 280 258 273 280 272 282 280 296 302 308 315 305 296 289 264 261 260 253 241 227 259 250 245 243 241 245 237 240 246 251 249 249 250 250 250 253
323 322 323 323 322 321 322 321 321 321 322 323 325 323 310 294 283 273 273 276 263 279 275 273 292 298 299 305 316 304 294 272 249 235 248 249 241 231 214 219 226 229 232 234 242 239 234 236 248 248 251 252 253 253
328 329 328 327 327 327 326 324 323 321 321 324 327 326 319 294 272 276 275 280 267 270 275 281 286 288 293 303 311 297 283 282 256 248 246 262 265 256 234 231 220 214 226 231 228 227 233 235 235 238 242 246 248 249
333 331 332 334 333 332 330 329 325 322 322 326 327 326 315 307 288 282 270 268 271 272 276 285 286 295 300 305 300 289 268 255 253 233 244 254 252 253 254 246 231 233 229 219 229 234 228 228 231 235 235 235 239 243
335 337 339 339 338 337 336 336 330 326 325 327 328 328 295 286 285 278 280 281 282 286 288 290 292 296 298 296 285 261 266 257 263 236 233 242 235 245 264 267 259 246 252 241 231 216 238 241 238 234 236 236 239 242
343 345 344 342 340 341 342 343 338 332 331 330 332 331 318 267 263 274 282 283 287 290 293 296 291 292 289 284 263 246 246 212 204 200 259 248 227 245 265 283 258 278 258 257 245 236 228 207 216 239 247 248 244 241
354 353 348 344 343 345 346 347 345 338 334 335 339 337 334 310 277 280 284 288 292 295 294 290 300 298 296 281 253 228 215 226 220 235 247 245 250 245 259 254 280 274 277 268 260 247 245 237 238 231 207 220 241 245
4 359 352 349 347 348 349 349 348 344 341 342 344 343 350 344 320 300 305 312 335 347 343 335 337 314 323 311 268 218 222 224 244 252 257 256 252 247 264 268 266 255 264 287 249 250 255 251 257 259 254 275 259 249
7 6 360 353 351 352 352 353 353 351 349 348 349 347 352 359 358 343 279 301 281 312 314 312 312 322 307 313 275 238 235 244 252 262 262 251 252 255 266 260 268 251 245 258 259 254 237 237 247 256 258 267 269 273
7 9 9 5 359 357 356 355 359 358 355 352 349 354 354 352 356 0 352 318 304 299 309 314 319 302 315 318 283 251 241 253 264 262 277 270 268 266 259 253 259 275 256 245 248 242 239 234 222 225 234 243 244 260
5 6 7 9 11 11 6 360 359 4 6 1 358 1 2 2 357 354 350 343 336 328 321 318 312 302 302 320 328 283 265 277 280 272 291 301 294 275 247 244 256 272 254 250 250 249 241 243 233 219 220 226 210 224
3 4 4 5 7 10 14 13 9 7 9 11 11 9 8 7 10 13 8 359 350 342 335 329 325 298 280 293 293 293 297 281 290 280 293 314 305 279 251 254 266 270 275 254 242 250 248 247 245 239 229 224 228 234
3 3 3 3 4 3 6 12 15 17 13 11 9 9 10 13 12 10 2 357 358 359 356 350 332 308 292 276 280 289 287 286 286 283 281 291 307 307 273 266 260 253 249 249 243 239 240 251 255 251 247 241 237 234
357 360 2 3 3 2 1 2 9 14 16 21 21 18 16 12 4 355 349 348 350 349 351 359 4 350 327 298 289 280 276 274 273 274 275 274 265 276 285 277 265 257 251 241 235 234 234 233 239 245 248 246 244 238
350 350 350 353 358 0 359 357 356 358 2 11 14 16 21 24 24 19 11 0 350 347 350 355 360 360 349 340 319 302 291 280 267 262 266 269 275 274 270 271 271 267 261 253 248 248 247 243 237 236 240 244 246 245
346 345 344 342 342 345 350 352 351 349 350 353 354 359 3 8 11 14 15 18 18 11 5 359 358 359 350 341 337 334 321 305 282 269 270 273 271 267 271 271 271 267 263 261 258 257 257 255 252 250 249 248 247 244
345 345 342 340 337 336 337 338 339 340 341 342 343 343 345 348 353 357 359 2 6 10 15 14 8 357 346 337 330 326 319 311 303 297 289 285 279 276 273 271 270 271 271 269 267 266 265 262 260 258 256 252 247 247
341 341 339 336 334 333 331 330 330 330 329 331 333 335 336 336 336 336 338 342 344 347 352 354 360 6 3 356 345 334 324 316 309 301 295 291 287 285 283 282 280 278 276 274 272 269 267 265 263 260 256 254 253 250
338 337 334 330 328 329 327 325 324 322 322 323 325 327 327 328 328 328 329 327 326 326 324 323 323 326 330 336 344 348 347 344 338 330 321 314 310 307 304 299 295 292 288 284 281 277 274 271 270 268 265 260 255 253
331 335 335 327 325 325 324 321 320 319 319 319 319 319 319 320 321 321 321 320 317 313 310 306 303 300 299 298 300 302 304 308 313 317 320 323 324 325 324 323 322 320 316 310 301 295 290 284 278 273 270 267 263 259
316 325 331 326 324 323 320 317 318 318 317 317 317 317 317 316 316 315 315 312 308 305 300 297 293 288 284 282 279 278 279 281 284 288 293 296 298 300 301 302 302 300 297 295 295 296 297 294 287 280 275 271 266 261
311 318 326 324 322 319 315 316 317 318 318 318 318 317 316 316 314 311 308 303 300 298 294 291 288 284 280 278 276 274 275 277 279 281 283 284 285 285 287 287 287 287 288 288 287 286 285 284 283 282 283 280 272 265
318 323 324 324 320 317 318 318 318 319 320 319 319 318 316 312 308 305 304 302 298 293 290 288 285 283 283 284 284 285 285 286 287 287 287 286 286 286 285 284 283 282 281 281 280 279 278 277 276 276 276 274 271 271
323 324 326 324 321 321 319 320 320 320 320 320 318 317 317 317 316 314 308 302 296 293 290 287 287 287 287 288 289 288 287 286 286 285 285 285 284 284 283 283 281 280 279 277 275 273 271 270 268 268 269 269 269 268
326 329 328 326 322 320 319 319 319 320 321 324 330 336 338 337 333 324 316 308 302 298 294 292 293 294 295 296 294 292 291 291 290 290 289 289 288 287 285 284 282 280 277 275 273 272 270 269 267 265 264 263 263 263
334 332 326 323 321 320 322 324 328 332 338 346 354 359 3 5 7 7 360 348 336 325 319 314 313 311 311 309 306 306 304 302 300 299 298 296 294 293 291 289 286 284 282 280 278 274 270 267 265 263 262 261 260 258
347 348 349 350 350 350 350 350 353 359 4 3 360 357 356 355 354 352 350 344 337 332 326 321 317 314 312 311 309 307 305 304 302 301 301 300 298 296 294 292 290 287 284 281 278 276 274 272 268 265 261 257 256 255
15 19 21 21 19 18 17 18 18 14 6 357 353 349 348 347 345 343 339 334 329 327 324 320 316 313 310 309 309 310 310 310 310 310 310 311 312 313 314 312 310 304 298 291 285 279 274 271 269 266 263 260 257 256
16 18 20 22 22 20 17 12 6 0 355 350 347 347 345 343 344 347 348 345 342 340 337 338 339 340 338 334 334 332 332 339 347 351 350 344 339 332 328 326 324 323 320 315 309 302 296 290 283 277 270 263 259 255
14 15 15 14 12 8 4 359 355 351 347 346 347 347 349 355 358 358 358 357 358 2 2 1 0 2 9 13 13 10 7 1 356 352 350 352 354 353 350 345 340 336 331 326 320 313 307 303 300 296 289 278 266 259
12 12 11 9 5 1 357 353 350 350 350 352 356 2 9 10 11 15 16 17 18 19 19 18 17 17 17 16 17 15 14 12 10 8 5 3 3 4 5 4 2 360 357 353 346 337 327 319 314 308 301 294 283 266
9 9 8 5 3 1 359 360 0 2 5 11 14 15 17 22 23 21 20 20 23 26 27 28 28 28 27 26 26 25 24 23 21 20 18 17 17 18 17 16 15 13 10 9 8 5 2 356 351 350 347 333 308 278
5 6 5 4 3 4 4 6 10 12 15 20 19 18 19 22 26 28 27 28 28 29 31 32 34 35 37 38 40 41 41 40 39 37 36 35 35 33 31 29 27 24 24 24 23 24 24 26 28 31 33 37 48 75